Location: Laval
(48.0785°N, 0.7670°W)
Time: 12:43:48
(UTC+01:00)

ISS - Visible Passes

Search period start: 09 December 2023 00:00
Search period end: 19 December 2023 00:00
Orbit: 415 x 417 km, 51.6° (Epoch: 09 December)

Date Brightness Start Highest point End Pass type
(mag) Time Alt. Az. Time Alt. Az. Time Alt. Az.
16 Dec -1.0 07:42:18 10° SSW 07:44:56 22° SE 07:47:34 10° E visible
17 Dec -0.6 06:54:16 10° S 06:56:05 14° SE 06:57:55 10° ESE visible
18 Dec -2.7 07:40:03 10° SW 07:43:16 46° SSE 07:46:29 10° ENE visible
